Location: Newark
(6.0333°S, 36.1333°E)
Time: 07:07:57
(UTC+00:00)

ISS - Pass Details

Date: 22 November 2019
Orbit: 411 x 421 km, 51.6° (Epoch: 07 December)

Event Time Altitude Azimuth Distance (km) Brightness Sun altitude
Exits shadow 01:01:53 13° 89° (E) 1,311 -0.6 -29.9°
Drops below altitude 10° 01:02:36 10° 99° (E) 1,494 -0.1 -29.7°
Sets 01:05:10 0° 120° (ESE) 2,359 1.3 -29.2°
